{"data":{"norad_id":54651,"intl_designator":"2022-166K","name":"ONEWEB-0584","alt_names":[],"object_type":"PAYLOAD","status":"ACTIVE","operator":null,"country":"UK","launch_date":"2022-12-08","launch_site_code":"AFETR","launch_vehicle":null,"mission":null,"orbit_class":"UNKNOWN","rcs_meters":null,"size_class":null,"mass_kg":null,"dimensions":null,"purposes":["comms"],"wikipedia_slug":null,"has_3d_model":false,"image_url":null,"decayed_at":null,"tle_current":{"epoch":"2026-09-20T03:53:32.237952Z","epoch_age_seconds":51235,"freshness":"FRESH","line1":"1 54651U 22166K   26263.16217868  .00000050  00000+0  88679-4 0  9992","line2":"2 54651  87.9278 225.0748 0002099  82.3540 277.7833 13.21824154184061","mean_motion":13.21824154,"eccentricity":0.0002099,"inclination_deg":87.9278,"raan_deg":225.0748,"arg_perigee_deg":82.354,"mean_anomaly_deg":277.7833,"bstar":8.8679e-5,"rev_number":18406,"period_min":108.94036061018,"perigee_km":1176.1744203118,"apogee_km":1179.3463860416,"semimajor_km":7555.8974031767,"source":"CELESTRAK","updated_at":"2026-09-20T09:00:44.742544Z"}}}